sat.trackr.live / text

‹ back to catalog

STARLINK-4656

NORAD 53745 · 2022-107AX

PAYLOAD ACTIVE UNKNOWN

§ Identity

Operator
Country
US
Launch date
2022-09-05
Launch site
AFETR
Launch vehicle
Mass (kg)
RCS (m²)

Purposes: comms

External: N2YO · Heavens-Above · Gunter

§ Orbital elements

Epoch: 2026-05-24T19:30:46.774368Z

Period
95.44 min
Inclination
53.2150°
Eccentricity
0.0001239
Mean motion
15.08837857 rev/d
Perigee alt
538.9 km
Apogee alt
540.6 km
Semi-major
6,917.9 km
B*
5.7737e-5
RAAN
282.5156°
Arg perigee
89.4678°
Mean anomaly
270.6456°
Rev number
20,608

§ Raw data

STARLINK-46561 53745U 22107AX  26144.81304137  .00000631  00000+0  57737-4 0  99922 53745  53.2150 282.5156 0001239  89.4678 270.6456 15.08837857206086

JSON: /api/v1/satellites/53745 · /tle

For live sub-satellite position, see the globe view (requires WebGL).

§ Visibility from observer

Set your observer location to see the next 7 days of passes ≥ 10°. The values pass through the URL so the page stays shareable.

No JS? Fill the form by hand. The geolocation button needs JavaScript.